Huron, SD

4:22 AM CDT on October 14, 2019 (GMT -0500)
Huron Regional

Weather History for KHON - September, 2019

Change the Weather History Date:

Friday, September 20, 2019

  Actual Average Record
Temperature  
Mean Temperature 79 °F 60 °F  
Max Temperature 86 °F 73 °F 95 °F (1941)
Min Temperature 72 °F 47 °F 24 °F (1918)
Degree Days  
Heating Degree Days 0 7  
Month to date heating degree days 18 79  
Since 1 July heating degree days 29 108  
Cooling Degree Days 14 1  
Month to date cooling degree days 96 61  
Year to date cooling degree days 712 730  
Growing Degree Days 29 (Base 50)    
Moisture  
Dew Point 68 °F    
Average Humidity 72    
Maximum Humidity 90    
Minimum Humidity 51    
Precipitation  
Precipitation 0.00 in 0.08 in 2.32 in (1950)
Month to date precipitation 3.07 1.72  
Year to date precipitation 32.67 18.98  
Snow  
Snow 0.00 in 0.00 in 0.00 in ()
Month to date snowfall 0.0 0.0  
Since 1 July snowfall 0.0 0.0  
Since 1 September snowfall 0.0 0.0  
Snow Depth 0.00 in    
Sea Level Pressure  
Sea Level Pressure 29.78 in    
Wind  
Wind Speed 14 mph ()    
Max Wind Speed 24 mph    
Max Gust Speed 37 mph    
Visibility 10.0 miles    
Events      
T = Trace of Precipitation, MM = Missing Value Source: Averaged Metar Reports

Daily Weather History Graph

Daily Weather History Graph

Search for Another Location

Airport or City:

Astronomy

Sep. 20, 2019 Rise Set
Actual Time 7:17 AM CDT 7:34 PM CDT
Civil Twilight 6:48 AM CDT 8:03 PM CDT
Nautical Twilight 6:14 AM CDT 8:37 PM CDT
Astronomical Twilight 5:39 AM CDT 9:12 PM CDT
Moon 11:11 PM CDT (9/20) 1:37 PM CDT (9/20)
Length of Visible Light 13h 14m
Length of Day
12h 16m
Waning Gibbous, 65% of the Moon is Illuminated
Sep 20
Waning Gibbous
Sep 21
Last Quarter
Sep 28
New
Oct 5
First Quarter
Oct 13
Full

Hourly Weather History & Observations

Time (CDT) Temp. Heat Index Dew Point Humidity Pressure Visibility Wind Dir Wind Speed Gust Speed Precip Events Conditions
12:55 AM 73.0 °F - 66.9 °F 81% 29.86 in 10.0 mi SE 13.8 mph 24.2 mph N/A   Clear
1:55 AM 73.9 °F - 68.0 °F 82% 29.86 in 10.0 mi SE 15.0 mph 25.3 mph N/A   Clear
2:55 AM 73.0 °F - 68.0 °F 84% 29.84 in 10.0 mi SE 12.7 mph 25.3 mph N/A   Clear
3:55 AM 73.0 °F - 68.0 °F 84% 29.83 in 10.0 mi SE 13.8 mph 23.0 mph N/A   Clear
4:55 AM 73.0 °F - 68.0 °F 84% 29.82 in 10.0 mi SE 16.1 mph 25.3 mph N/A   Clear
5:55 AM 72.0 °F - 68.0 °F 87% 29.82 in 10.0 mi SE 16.1 mph - N/A   Clear
6:55 AM 72.0 °F - 68.0 °F 87% 29.83 in 10.0 mi SSE 13.8 mph - N/A   Clear
7:55 AM 72.0 °F - 68.0 °F 87% 29.84 in 10.0 mi SSE 13.8 mph 25.3 mph N/A   Clear
8:55 AM 73.0 °F - 68.0 °F 84% 29.86 in 10.0 mi SSE 13.8 mph 21.9 mph N/A   Clear
9:55 AM 77.0 °F - 69.1 °F 76% 29.86 in 10.0 mi South 13.8 mph 23.0 mph N/A   Clear
10:55 AM 79.0 °F - 69.1 °F 72% 29.84 in 10.0 mi SSE 16.1 mph 27.6 mph N/A   Clear
11:55 AM 81.0 °F 84.4 °F 70.0 °F 69% 29.83 in 10.0 mi SSE 12.7 mph 26.5 mph N/A   Clear
12:55 PM 82.9 °F 87.0 °F 70.0 °F 65% 29.80 in 10.0 mi SSE 17.3 mph 26.5 mph N/A   Clear
1:55 PM 82.9 °F 86.5 °F 69.1 °F 63% 29.77 in 10.0 mi SSE 18.4 mph 34.5 mph N/A   Partly Cloudy
2:55 PM 84.0 °F 88.4 °F 70.0 °F 63% 29.75 in 10.0 mi SSE 17.3 mph 32.2 mph N/A   Mostly Cloudy
3:55 PM 86.0 °F 89.4 °F 68.0 °F 55% 29.74 in 10.0 mi SSE 21.9 mph 29.9 mph N/A   Mostly Cloudy
4:55 PM 86.0 °F 88.8 °F 66.9 °F 53% 29.73 in 10.0 mi South 18.4 mph 36.8 mph N/A   Partly Cloudy
5:55 PM 84.0 °F 86.3 °F 66.0 °F 55% 29.72 in 10.0 mi SSE 19.6 mph 33.4 mph N/A   Clear
6:55 PM 82.0 °F 83.8 °F 64.9 °F 56% 29.71 in 10.0 mi SSE 18.4 mph 29.9 mph N/A   Clear
7:55 PM 79.0 °F - 66.9 °F 66% 29.70 in 10.0 mi SSE 13.8 mph 24.2 mph N/A   Clear
8:55 PM 78.1 °F - 66.0 °F 66% 29.70 in 10.0 mi SSE 16.1 mph 27.6 mph N/A   Clear
9:55 PM 77.0 °F - 66.0 °F 69% 29.71 in 10.0 mi South 13.8 mph 26.5 mph N/A   Clear
10:55 PM 75.0 °F - 66.0 °F 73% 29.72 in 10.0 mi SSE 16.1 mph 25.3 mph N/A   Clear
11:55 PM 73.9 °F - 66.0 °F 76% 29.69 in 10.0 mi SSE 17.3 mph 26.5 mph N/A   Clear